Time,TemperatureF,DewpointF,PressureIn,WindDirection,WindDirectionDegrees,WindSpeedMPH,WindSpeedGustMPH,Humidity,HourlyPrecipIn,Conditions,Clouds,dailyrainin,SoftwareType,DateUTC
2013-10-14 00:23:00,48.0,40.0,30.28,WNW,296,0.0,0.0,73,0.00,,,0.00,,2013-10-14 05:23:00,
2013-10-14 00:43:00,48.0,39.0,30.28,WNW,296,0.0,0.0,72,0.00,,,0.00,,2013-10-14 05:43:00,
2013-10-14 00:52:00,48.0,39.0,30.27,WNW,296,0.0,0.0,72,0.00,,,0.00,,2013-10-14 05:52:00,
2013-10-14 01:13:00,48.0,39.0,30.27,WNW,296,0.0,0.0,70,0.00,,,0.00,,2013-10-14 06:13:00,
2013-10-14 01:22:00,48.0,39.0,30.27,WNW,296,0.0,0.0,71,0.00,,,0.00,,2013-10-14 06:22:00,
2013-10-14 01:52:00,48.0,39.0,30.26,WNW,296,0.0,0.0,71,0.00,,,0.00,,2013-10-14 06:52:00,
2013-10-14 02:11:00,47.0,39.0,30.26,WNW,296,0.0,0.0,75,0.00,,,0.00,,2013-10-14 07:11:00,
2013-10-14 02:22:00,47.0,40.0,30.26,WNW,296,0.0,0.0,76,0.00,,,0.00,,2013-10-14 07:22:00,
2013-10-14 02:42:00,47.0,39.0,30.26,WNW,296,0.0,0.0,73,0.00,,,0.00,,2013-10-14 07:42:00,
2013-10-14 02:52:00,48.0,39.0,30.26,WNW,296,0.0,0.0,70,0.00,,,0.00,,2013-10-14 07:52:00,
2013-10-14 03:12:00,49.0,37.0,30.26,WNW,296,0.0,0.0,64,0.00,,,0.00,,2013-10-14 08:12:00,
2013-10-14 03:22:00,49.0,37.0,30.25,WNW,296,0.0,0.0,62,0.00,,,0.00,,2013-10-14 08:22:00,
2013-10-14 03:42:00,50.0,36.0,30.24,WNW,296,0.0,0.0,59,0.00,,,0.00,,2013-10-14 08:42:00,
2013-10-14 03:52:00,51.0,37.0,30.23,WNW,296,0.0,0.0,58,0.00,,,0.00,,2013-10-14 08:52:00,
2013-10-14 04:11:00,51.0,36.0,30.22,WNW,295,0.0,0.0,57,0.00,,,0.00,,2013-10-14 09:11:00,
2013-10-14 04:22:00,51.0,36.0,30.22,WNW,295,0.0,0.0,56,0.00,,,0.00,,2013-10-14 09:22:00,
2013-10-14 04:43:00,51.0,36.0,30.21,East,84,0.0,0.0,57,0.00,,,0.00,,2013-10-14 09:43:00,
2013-10-14 04:53:00,51.0,36.0,30.20,East,86,0.0,0.0,57,0.00,,,0.00,,2013-10-14 09:53:00,
2013-10-14 05:13:00,51.0,36.0,30.20,East,86,0.0,0.0,57,0.00,,,0.00,,2013-10-14 10:13:00,
2013-10-14 05:23:00,51.0,37.0,30.20,East,86,0.0,0.0,58,0.00,,,0.00,,2013-10-14 10:23:00,
2013-10-14 05:42:00,51.0,37.0,30.19,East,86,0.0,0.0,58,0.00,,,0.00,,2013-10-14 10:42:00,
2013-10-14 05:53:00,51.0,37.0,30.18,ESE,119,0.0,0.0,58,0.00,,,0.00,,2013-10-14 10:53:00,
2013-10-14 06:11:00,50.0,36.0,30.18,ESE,119,0.0,0.0,58,0.00,,,0.00,,2013-10-14 11:11:00,
2013-10-14 06:22:00,50.0,36.0,30.17,ESE,119,0.0,0.0,59,0.00,,,0.00,,2013-10-14 11:22:00,
2013-10-14 06:42:00,50.0,37.0,30.16,ENE,69,0.0,0.0,60,0.00,,,0.00,,2013-10-14 11:42:00,
2013-10-14 06:52:00,51.0,37.0,30.17,ENE,70,0.0,0.0,59,0.00,,,0.00,,2013-10-14 11:52:00,
2013-10-14 07:12:00,51.0,37.0,30.16,NE,38,0.0,0.0,58,0.00,,,0.00,,2013-10-14 12:12:00,
2013-10-14 07:22:00,52.0,38.0,30.16,NE,40,0.0,0.0,58,0.00,,,0.00,,2013-10-14 12:22:00,
2013-10-14 07:42:00,53.0,37.0,30.17,South,171,1.0,1.0,55,0.00,,,0.00,,2013-10-14 12:42:00,
2013-10-14 07:52:00,53.0,37.0,30.19,SSE,161,0.0,0.0,54,0.00,,,0.00,,2013-10-14 12:52:00,
2013-10-14 08:11:00,53.0,36.0,30.18,SSE,158,0.0,0.0,53,0.00,,,0.00,,2013-10-14 13:11:00,
2013-10-14 08:21:00,54.0,37.0,30.16,SSE,157,0.0,0.0,53,0.00,,,0.00,,2013-10-14 13:21:00,
2013-10-14 08:42:00,54.0,38.0,30.16,NE,37,0.0,0.0,54,0.00,,,0.00,,2013-10-14 13:42:00,
2013-10-14 08:52:00,54.0,38.0,30.16,ENE,76,1.0,1.0,54,0.00,,,0.00,,2013-10-14 13:52:00,
2013-10-14 09:11:00,54.0,37.0,30.16,ESE,106,0.0,0.0,53,0.00,,,0.00,,2013-10-14 14:11:00,
2013-10-14 09:22:00,54.0,37.0,30.18,SE,128,0.0,0.0,53,0.00,,,0.00,,2013-10-14 14:22:00,
2013-10-14 09:42:00,55.0,38.0,30.16,SE,132,0.0,0.0,53,0.00,,,0.00,,2013-10-14 14:42:00,
2013-10-14 09:52:00,55.0,39.0,30.16,SE,142,0.0,0.0,54,0.00,,,0.00,,2013-10-14 14:52:00,
2013-10-14 10:11:00,55.0,40.0,30.14,SE,132,0.0,0.0,56,0.00,,,0.00,,2013-10-14 15:11:00,
2013-10-14 10:21:00,57.0,40.0,30.13,South,172,6.0,6.0,53,0.00,,,0.00,,2013-10-14 15:21:00,
2013-10-14 10:44:00,58.0,39.0,30.13,South,169,0.0,0.0,49,0.00,,,0.00,,2013-10-14 15:44:00,
2013-10-14 10:54:00,58.0,39.0,30.13,East,98,2.0,2.0,50,0.00,,,0.00,,2013-10-14 15:54:00,
2013-10-14 11:13:00,60.0,40.0,30.11,SSE,159,3.0,3.0,48,0.00,,,0.00,,2013-10-14 16:13:00,
2013-10-14 11:23:00,60.0,40.0,30.11,SSW,192,0.0,0.0,47,0.00,,,0.00,,2013-10-14 16:23:00,
2013-10-14 11:53:00,63.0,41.0,30.09,South,178,9.0,9.0,44,0.00,,,0.00,,2013-10-14 16:53:00,
2013-10-14 12:12:00,64.0,41.0,30.08,SSE,160,1.0,1.0,43,0.00,,,0.00,,2013-10-14 17:12:00,
2013-10-14 12:22:00,64.0,41.0,30.07,South,183,5.0,5.0,43,0.00,,,0.00,,2013-10-14 17:22:00,
2013-10-14 12:42:00,64.0,42.0,30.06,SSE,149,10.0,10.0,44,0.00,,,0.00,,2013-10-14 17:42:00,
2013-10-14 12:52:00,65.0,43.0,30.06,SSE,163,4.0,4.0,45,0.00,,,0.00,,2013-10-14 17:52:00,
2013-10-14 13:12:00,66.0,45.0,30.05,SE,127,5.0,5.0,46,0.00,,,0.00,,2013-10-14 18:12:00,
2013-10-14 13:22:00,67.0,46.0,30.04,SSE,157,7.0,7.0,47,0.00,,,0.00,,2013-10-14 18:22:00,
2013-10-14 13:42:00,69.0,47.0,30.03,SSE,159,12.0,12.0,45,0.00,,,0.00,,2013-10-14 18:42:00,
2013-10-14 13:52:00,69.0,47.0,30.01,SSE,163,10.0,10.0,46,0.00,,,0.00,,2013-10-14 18:52:00,
2013-10-14 14:11:00,68.0,48.0,30.01,SSE,165,12.0,12.0,49,0.00,,,0.00,,2013-10-14 19:11:00,
2013-10-14 14:22:00,67.0,48.0,30.01,SSE,165,14.0,14.0,50,0.00,,,0.00,,2013-10-14 19:22:00,
2013-10-14 14:42:00,67.0,50.0,29.99,South,188,16.0,16.0,54,0.00,,,0.00,,2013-10-14 19:42:00,
2013-10-14 14:52:00,65.0,51.0,29.98,SE,139,3.0,3.0,60,0.00,,,0.00,,2013-10-14 19:52:00,
2013-10-14 15:11:00,65.0,52.0,29.98,South,173,2.0,2.0,62,0.00,,,0.00,,2013-10-14 20:11:00,
2013-10-14 15:22:00,64.0,52.0,29.96,South,175,6.0,6.0,65,0.00,,,0.00,,2013-10-14 20:22:00,
2013-10-14 15:43:00,64.0,53.0,29.96,SSE,163,9.0,9.0,68,0.00,,,0.00,,2013-10-14 20:43:00,
2013-10-14 15:52:00,64.0,53.0,29.96,SSE,168,4.0,4.0,68,0.00,,,0.00,,2013-10-14 20:52:00,
2013-10-14 16:22:00,63.0,53.0,29.94,SE,142,13.0,13.0,71,0.00,,,0.00,,2013-10-14 21:22:00,
2013-10-14 16:44:00,63.0,55.0,29.93,SSE,166,5.0,5.0,75,0.00,,,0.00,,2013-10-14 21:44:00,
2013-10-14 16:54:00,62.0,55.0,29.93,SE,134,4.0,4.0,79,0.01,,,0.01,,2013-10-14 21:54:00,
2013-10-14 17:24:00,60.0,56.0,29.91,South,169,1.0,1.0,86,0.02,,,0.02,,2013-10-14 22:24:00,
2013-10-14 17:43:00,60.0,56.0,29.91,SSE,165,5.0,5.0,87,0.03,,,0.03,,2013-10-14 22:43:00,
2013-10-14 17:54:00,60.0,56.0,29.91,SSE,167,4.0,4.0,88,0.05,,,0.05,,2013-10-14 22:54:00,
2013-10-14 18:22:00,59.0,56.0,29.91,SSE,168,4.0,4.0,90,0.07,,,0.09,,2013-10-14 23:22:00,
2013-10-14 18:52:00,59.0,56.0,29.90,South,171,1.0,1.0,91,0.10,,,0.13,,2013-10-14 23:52:00,
2013-10-14 19:12:00,59.0,57.0,29.88,SSE,168,1.0,1.0,92,0.09,,,0.13,,2013-10-15 00:12:00,
2013-10-14 19:22:00,59.0,57.0,29.87,ESE,106,0.0,0.0,92,0.06,,,0.14,,2013-10-15 00:22:00,
2013-10-14 19:42:00,59.0,57.0,29.87,SE,144,0.0,0.0,92,0.05,,,0.14,,2013-10-15 00:42:00,
2013-10-14 19:52:00,59.0,57.0,29.86,SSE,148,0.0,0.0,92,0.03,,,0.14,,2013-10-15 00:52:00,
2013-10-14 20:12:00,59.0,56.0,29.85,South,180,0.0,0.0,91,0.01,,,0.14,,2013-10-15 01:12:00,
2013-10-14 20:22:00,60.0,57.0,29.85,South,180,6.0,6.0,91,0.00,,,0.14,,2013-10-15 01:22:00,
2013-10-14 20:42:00,60.0,57.0,29.85,SSE,167,0.0,0.0,91,0.00,,,0.14,,2013-10-15 01:42:00,
2013-10-14 20:52:00,60.0,57.0,29.85,SSE,167,0.0,0.0,90,0.00,,,0.14,,2013-10-15 01:52:00,
2013-10-14 21:12:00,61.0,58.0,29.85,South,181,0.0,0.0,91,0.00,,,0.14,,2013-10-15 02:12:00,
2013-10-14 21:22:00,62.0,59.0,29.83,SE,137,13.0,13.0,89,0.01,,,0.15,,2013-10-15 02:22:00,
2013-10-14 21:52:00,63.0,59.0,29.82,SSE,165,6.0,6.0,87,0.01,,,0.15,,2013-10-15 02:52:00,
2013-10-14 22:12:00,62.0,59.0,29.81,South,180,12.0,12.0,89,0.01,,,0.15,,2013-10-15 03:12:00,
2013-10-14 22:23:00,62.0,59.0,29.80,South,177,9.0,9.0,91,0.02,,,0.16,,2013-10-15 03:23:00,
2013-10-14 22:44:00,62.0,59.0,29.81,South,187,11.0,11.0,91,0.01,,,0.16,,2013-10-15 03:44:00,
2013-10-14 22:55:00,63.0,60.0,29.81,SSE,149,12.0,12.0,90,0.01,,,0.16,,2013-10-15 03:55:00,
2013-10-14 23:14:00,63.0,59.0,29.81,South,182,14.0,14.0,88,0.01,,,0.16,,2013-10-15 04:14:00,
2013-10-14 23:24:00,63.0,59.0,29.81,SSE,162,13.0,13.0,88,0.02,,,0.17,,2013-10-15 04:24:00,
2013-10-14 23:43:00,63.0,59.0,29.81,SSW,193,10.0,10.0,88,0.01,,,0.17,,2013-10-15 04:43:00,
2013-10-14 23:54:00,63.0,60.0,29.84,SW,225,13.0,13.0,89,0.06,,,0.22,,2013-10-15 04:54:00,